Flag for Netherlands Weather past 2 weeks in Eindhoven, Netherlands

Now
36 °F

Chilly.


Feels Like: 32 °F
Forecast: 42 / 51 °F
Wind: 5 mph from Southeast

Location: Eindhoven Airport


UV Index: 0 (Low)

Visibility: N/A


Pressure: 30.24 "Hg

Humidity: 81%

Dew point: 30 °F

Location of EindhovenLocation

Historic Weather in Eindhoven

°F

Eindhoven temperature yesterday

Maximum temperature yesterday: 61 °F (at 5:25 PM)
Minimum temperature yesterday: 30 °F (at 3:55 AM)
Average temperature yesterday: 47 °F

Past Weeks' High & Low Weather Summary

 TemperatureHumidityPressure
High73 °F (Apr 3, 2:25 PM)100% (Apr 5, 7:25 AM)30.45 "Hg (Apr 5, 7:25 AM)
Low30 °F (Apr 16, 3:55 AM)31% (Apr 16, 5:25 PM)29.56 "Hg (Apr 3, 6:55 AM)
Average53 °F72%30.03 "Hg
* Reported Apr 2 5:25 AM — Apr 17 5:25 AM, Eindhoven, Weather by CustomWeather, © 2014

Note: Actual official high and low records may vary slightly from our data, if they occured in-between our weather recording intervals... More about our weather records

Advertising

Historic Weather Conditions — Data for Previous 24 hours

 ConditionsComfort  
Time TempWeatherWind HumidityBarometerVisibility
5:25 AM
Apr 17
37 °FChilly.6 mph81%30.24 "HgN/A
4:55 AM37 °FChilly.6 mph81%30.24 "HgN/A
4:25 AM37 °FChilly.6 mph81%30.27 "HgN/A
3:55 AM39 °FChilly.5 mph75%30.27 "HgN/A
3:25 AM41 °FQuite cool.6 mph70%30.27 "HgN/A
2:55 AM43 °FPassing clouds.6 mph66%30.27 "HgN/A
2:25 AM43 °FQuite cool.6 mph66%30.27 "HgN/A
1:55 AM43 °FQuite cool.6 mph66%30.27 "HgN/A
1:25 AM45 °FPassing clouds.5 mph61%30.30 "HgN/A
12:55 AM45 °FQuite cool.5 mph61%30.30 "HgN/A
12:25 AM43 °FQuite cool.2 mph71%30.30 "HgN/A
11:55 PM
Apr 16
43 °FQuite cool.1 mph71%30.30 "HgN/A
11:25 PM43 °FQuite cool.No wind71%30.30 "HgN/A
11:04 PM43 °FQuite cool.1 mph71%30.30 "HgN/A
10:25 PM45 °FPassing clouds.2 mph66%30.30 "HgN/A
9:55 PM46 °FCool.2 mph62%30.33 "HgN/A
9:25 PM48 °FCool.1 mph54%30.33 "HgN/A
8:55 PM54 °FCool.3 mph41%30.33 "HgN/A
8:25 PM54 °FCool.5 mph41%30.33 "HgN/A
7:55 PM57 °FRefreshingly cool.6 mph36%30.33 "HgN/A
7:25 PM59 °FRefreshingly cool.7 mph31%30.33 "HgN/A
6:55 PM59 °FRefreshingly cool.7 mph31%30.33 "HgN/A
6:25 PM59 °FRefreshingly cool.8 mph31%30.33 "HgN/A
5:55 PM61 °FRefreshingly cool.6 mph31%30.33 "HgN/A
5:25 PM61 °FRefreshingly cool.7 mph31%30.36 "HgN/A
4:55 PM59 °FPassing clouds.7 mph34%30.36 "HgN/A
4:25 PM59 °FRefreshingly cool.8 mph34%30.36 "HgN/A
4:02 PM59 °FRefreshingly cool.8 mph34%30.36 "HgN/A
3:55 PM57 °FRefreshingly cool.7 mph39%30.39 "HgN/A
3:25 PM59 °FRefreshingly cool.9 mph39%30.39 "HgN/A
2:55 PM59 °FRefreshingly cool.5 mph36%30.39 "HgN/A
2:25 PM57 °FPassing clouds.7 mph41%30.39 "HgN/A
1:55 PM57 °FRefreshingly cool.7 mph41%30.42 "HgN/A
1:25 PM55 °FRefreshingly cool.7 mph47%30.42 "HgN/A
12:55 PM55 °FPassing clouds.7 mph47%30.42 "HgN/A
12:25 PM54 °FCool.7 mph51%30.42 "HgN/A
11:55 AM54 °FPassing clouds.8 mph51%30.45 "HgN/A
11:25 AM50 °FCool.8 mph54%30.45 "HgN/A
10:55 AM50 °FCool.7 mph54%30.45 "HgN/A
10:25 AM48 °FCool.7 mph58%30.45 "HgN/A
9:55 AM48 °FPassing clouds.5 mph62%30.45 "HgN/A
9:25 AM46 °FPassing clouds.5 mph66%30.45 "HgN/A
8:55 AM43 °FQuite cool.3 mph76%30.45 "HgN/A
8:25 AM41 °FPassing clouds.3 mph81%30.42 "HgN/A
7:55 AM36 °FChilly.2 mph93%30.42 "HgN/A
7:25 AM32 °FChilly.2 mph93%30.42 "HgN/A
6:55 AM30 °FIce fog.1 mph100%30.42 "Hg6 mi
6:25 AM30 °FPassing clouds.1 mph100%30.42 "HgN/A
Weather by CustomWeather, © 2014

See weather overview